Starlink 32799

operational
NORAD ID: 62847 Int'l Des: 2025-019 Owner: SPXS Country: US Constellation: starlink
LEOCIRCULAR

关于 Starlink 32799

正在加载描述...

实时位置

正在加载3D地球...

即将过境

高度历史

Altitude vs Time

uPlot chart will show altitude changes over time

两行轨道根数

1 62847U 25019U 25303.18330921 .00038361 00000-0 13952-2 0 9997
2 62847 43.0026 105.8371 0001969 276.8119 83.2509 15.27605736 42294
Epoch: Oct 30, 2025 • Age: 23 hours

当前状态

高度 486.7 km
速度 7.62 km/s
星下点 -21.42°S, 21.06°W
发射日期 Jan 27, 2025
运行时间 0.7 years
类型 internet

技术详情

分类 Payload
质量 730.00 kg
干质量 700.00 kg
总质量 730.00 kg
长度 0.30 m
直径 4.10 m
跨度 29.00 m
形状 Box + pan
制造商 SPXS
平台类型 Starlink V2M
阶段状态 In Orbit
所有者/国家 SPXS/US

大型星座

Loading constellations...